www.pogodaiklimat.ru

Погода и климат >> Архив погоды >> Аргентина >> San Miguel de Tucuman


ПОГОДА в San Miguel de Tucuman

  • Прогноз погоды в San Miguel de Tucuman
  • Монитор погоды в San Miguel de Tucuman
  • Климат города

АРХИВ ПОГОДЫ в San Miguel de Tucuman

Время (UTC), дата Ветер
(напр.,м/с)
 
Видим.   Явления Облачность Т
(С)
Тd
(С)
f
(%)
Тe
(С)
Тes
(С)
Комфортность P
(гПа)
Po
(гПа)
Тmin
(С)
Tmax
(С)
R
(мм)
R24
(мм)
S
(см)
03 8.12 С 3 15 км ясно +18.6 +15.0 80 +20 +20 1019.5 968.4
06 8.12 С 3 15 км ясно +18.2 +14.2 77 +19 +19 1016.7 965.8
09 8.12 С 4 15 км 1/1 1200 м
[Sc]
+16.8 +13.7 82 +16 +16 1015.4 964.5
12 8.12 С 5 15 км ясно +22.7 +15.6 64 +27 +30 душно 1014.7 964.1 +16.8 +22.7
15 8.12 ЮЗ 3 15 км 5/5 1050 м
[Cu hum]
+26.2 +15.7 52 +29 +38 жарко 1012.0 961.4
18 8.12 В 4 15 км 8/8 1050 м
[Cu hum]
+28.8 +15.5 44 +32 +34 душно 1008.0 957.8
21 8.12 ЮЗ 5 15 км 9/9 1350 м
[Sc diur, vesp]
+26.2 +18.6 63 +31 +31 очень
душно
1005.6 955.2
00 9.12 З 2 12 км 9/3 1200 м
[Sc Ac trans]
+23.3 +18.0 72 +29 +29 душно 1006.6 956.4 +22.7 +29.6
03 9.12 С 3 12 км 8/0
[Ac trans]
+21.4 +18.3 83 +26 +26 душно 1007.2 957.0
06 9.12 С 3 12 км 3/0
[Ac trans]
+20.4 +17.6 84 +24 +24 комфорт 1004.7 954.9
09 9.12 С 3 15 км ясно +20.0 +16.5 80 +23 +23 комфорт 1005.2 955.0
12 9.12 В 2 15 км ясно +23.8 +18.1 70 +28 +34 душно 1007.5 957.4 +18.9 +23.8
15 9.12 В 2 15 км ясно +28.7 +18.8 55 +34 +54 опасность
солнечного
удара
1007.7 957.8
18 9.12 ЮВ 3 15 км ясно +31.9 +17.8 43 +36 +53 опасность
солнечного
удара
1006.2 956.6
21 9.12 Ю 2 15 км ясно +33.2 +19.7 45 +39 +44 очень
душно
1005.3 955.8
00 10.12 Ю 2 15 км ясно +28.5 +21.2 65 +36 +36 очень
душно
1007.6 957.8 +23.8 +33.2
03 10.12 С 4 12 км ясно +23.8 +19.6 77 +29 +29 душно 1009.6 959.8
06 10.12 С 5 15 км ясно +24.6 +19.5 73 +30 +30 очень
душно
1008.1 958.6
09 10.12 С 1 15 км ясно +23.0 +19.0 78 +29 +29 очень
душно
1008.4 959.0
12 10.12 С 4 15 км ясно +27.4 +20.1 64 +34 +38 очень
душно
1010.2 960.6 +21.7 +28.5
15 10.12 СВ 2 15 км 5/5 1050 м
[Cu hum]
+32.0 +20.3 50 +39 +49 очень
душно
1008.9 959.4
18 10.12 СВ 7 15 км 5/5 1050 м
[Cu hum]
+35.7 +20.5 41 +42 +45 опасность
перегрева
1005.4 956.4
21 10.12 В 6 15 км 5/5 <50 м
[Cu hum]
+36.4 +18.7 35 +41 +41 опасность
перегрева
1002.1 953.2
00 11.12 З 2 15 км 6/6 900 м
[Sc]
+30.2 +22.2 62 +39 +39 очень
душно
1004.1 955.0 +27.4 +36.4
03 11.12 С 3 12 км ясно +27.4 +20.5 66 +34 +34 очень
душно
1004.4 955.4
06 11.12 С 4 12 км ясно +27.5 +21.1 68 +35 +35 очень
душно
1001.3 952.8
09 11.12 С 5 12 км ясно +26.0 +19.5 67 +31 +31 очень
душно
1000.5 951.8
12 11.12 С 5 15 км ясно +30.3 +21.0 58 +38 +41 очень
душно
1002.0 953.2 +25.2 +30.7
15 11.12 Ю 2 15 км ясно +32.8 +23.1 57 +43 +65 опасность
перегрева
1002.4 953.6
18 11.12 ЮЗ 4 15 км ясно +35.7 +24.4 52 +48 +60 опасность
перегрева
1001.1 952.6
21 11.12 З 3 15 км 4/4 600 м
[Cb calv]
+36.6 +23.9 48 +48 +50 опасность
перегрева
999.1 950.6
00 12.12 С 2 15 км 5/1 1200 м
[Cb cap Ac trans]
+31.6 +23.8 63 +43 +43 опасность
перегрева
1001.1 952.5 +30.3 +37.4
03 12.12 С 4 15 км ясно +28.4 +22.7 71 +38 +38 очень
душно
1001.8 953.0
06 12.12 СЗ 3 15 км зарница 1/1 1500 м
[Cb cap]
+26.3 +22.4 79 +34 +34 очень
душно
1002.3 953.6
09 12.12 ЮЗ 8 12 км 3/1 1500 м
[Cb cap Cs]
+25.7 +21.8 79 +33 +33 очень
душно
1005.1 956.2
12 12.12 Ю 5 10 км осадки на расстоянии 10/10 800 м
[Sc]
+25.8 +22.2 81 +34 +34 очень
душно
1009.7 960.2 +24.5 +31.6
15 12.12 ЮЗ 5 5000 м слабый дождь туман 10/9 750 м
[Sc As op]
+24.7 +21.6 83 +32 +32 очень
душно
1010.4 960.6
18 12.12 ЮЗ 2 6000 м дымка {дождь} 10/10 450 м
[Frnb]
+24.6 +22.3 87 +32 +32 очень
душно
1009.5 959.6 0.0
21 12.12 ЮЗ 3 8000 м дымка 10/10 600 м
[Sc]
+25.4 +22.4 83 +33 +33 очень
душно
1006.4 956.6
00 13.12 ЮЗ 2 5000 м слабый дождь {морось} туман 10/9 240 м
[Frnb As op]
+23.6 +22.3 92 +31 +31 очень
душно
1007.8 957.8 +23.3 +26.4 0.1
03 13.12 штиль 0 5000 м дымка {гроза} 10/10 210 м
[Frnb]
+23.0 +22.1 95 +31 +31 очень
душно
1010.2 960.0
06 13.12 Ю 2 3000 м дымка {гроза} 10/10 300 м
[Frnb]
+22.6 +21.7 95 +30 +30 очень
душно
1005.6 955.6 5
09 13.12 Ю 2 3000 м дымка 10/10 210 м
[Frnb]
+22.4 +21.5 95 +30 +30 очень
душно
1004.3 954.4
12 13.12 штиль 0 2000 м слабая морось туман 10/10 90 м
[Frnb]
+22.9 +21.9 94 +31 +31 очень
душно
1003.8 953.8 +22.0 +23.6 0.0
15 13.12 З 3 7000 м дымка {морось} туман 6/6 450 м
[Cu hum]
+27.3 +23.3 79 +37 +44 очень
душно
1001.3 951.7
18 13.12 Ю 3 12 км {морось} ясно +32.0 +23.9 62 +43 +59 опасность
перегрева
997.2 948.2 0.0
21 13.12 ЮЗ 4 9000 м мгла 6/1 1050 м
[Cu hum Ac As Cs]
+31.4 +25.1 69 +45 +47 опасность
перегрева
994.4 945.4
00 14.12 З 2 10 км зарница 9/1 1200 м
[Cb cap Ac As Cs]
+27.0 +23.6 82 +37 +37 очень
душно
997.2 947.8 +22.9 +34.8
03 14.12 С 3 10 км {гроза} ясно +26.4 +22.7 80 +35 +35 очень
душно
996.8 947.7
06 14.12 штиль 0 15 км {гроза} ясно +26.6 +22.3 77 +35 +35 очень
душно
994.8 946.2
09 14.12 ЮЗ 2 12 км 5/0
[Ac trans]
+23.2 +22.0 93 +32 +32 очень
душно
997.6 948.6
12 14.12 ЮЗ 6 12 км 9/4 1050 м
[Cu hum Cs]
+29.1 +23.9 74 +40 +41 очень
душно
1002.9 953.7 +22.9 +29.1 0.0
15 14.12 Ю 8 12 км 9/9 1050 м
[Cu med, cong Cs]
+29.1 +22.2 66 +38 +38 очень
душно
1005.6 956.2
18 14.12 ЮЗ 4 12 км 9/9 1050 м
[Sc]
+29.9 +22.0 63 +39 +40 очень
душно
1005.8 956.5
21 14.12 З 2 10 км 10/10 1050 м
[Sc]
+28.1 +21.6 68 +36 +36 очень
душно
1007.2 957.4

 

Местоположение метеостанции San Miguel de Tucuman (Аргентина): широта -26.85 долгота -65.09 высота над уровнем моря 450 м.

В архиве по умолчанию представлена погода в San Miguel de Tucuman за последнюю неделю. Архивные данные за месяц целиком и за предыдущие месяцы, начиная с января 2011 года, Вы можете получить, выбрав интересующий диапазон дат из раскрывающегося списка и нажав кнопку "Ввод!".


*Определитесь, кто Вы:
робот инопланетянин человек

Внимание! Время в таблицах - всемирное. Для получения местного времени необходимо прибавить поправку, которая в San Miguel de Tucuman равна -3 ч.

Смотрите также архив погоды в соседних городах и на ближайших метеорологических станциях:

Погода в Santiago del Estero (Аргентина) (128 км)
Погода в San Fernando del Valle de Catamarca (Аргентина) (206 км)
Погода в Salta (Аргентина) (226 км)
Погода в San Salvador de Jujuy (Аргентина) (275 км)
Погода в La Rioja (Аргентина) (328 км)
Погода в Villa de Maria del Rio Seco (Аргентина) (366 км)
Погода в Chamical (Аргентина) (407 км)
Погода в San Ramon de la Nueva Oran (Аргентина) (419 км)
Погода в Ceres (Аргентина) (456 км)
Погода в Presidencia Roque Saenz Pena (Аргентина) (458 км)

Пояснения к столбцам:

Ветер - указаны скорость ветра в м/с - средняя за 10 мин, порывы в срок и между сроками (в фигурных скобках) и направление, откуда дует ветер: С - северный, СВ - северо-восточный, В - восточный, ЮВ - юго-восточный, Ю - южный, ЮЗ - юго-западный, З - западный, СЗ - северо-западный.
Видимость - горизонтальная дальность видимости в метрах или километрах. При видимости от 1 до 10 км при отсутствии осадков обычно наблюдается дымка, при ухудшении видимости до 1 км и менее - туман. В сухую погоду видимость может ухудшаться дымом, пылью или мглою.
Явления - указаны атмосферные явления, наблюдавшиеся в срок или в последний час перед сроком; фигурными скобками обозначены явления, наблюдавшиеся между сроками (за 1-3 часа до срока); квадратными скобками обозначены град или гололедные отложения с указанием их диаметра в мм.
Облачность - указаны через наклонную черту общая и нижняя облачность в баллах и высота нижней границы облаков в метрах; квадратными скобками обозначены формы облаков: Ci - перистые, Cs - перисто-слоистые, Cc - перисто-кучевые, Ac - высококучевые, As - высокослоистые, Sc - слоисто-кучевые, Ns - слоисто-дождевые, Cu - кучевые, Cb - кучево-дождевые. Подробнее классификацию облаков см. в Атласе облаков (PDF).
T - Температура воздуха - температура, измеренная на высоте 2 м над землей.
Td - Температура точки росы - температура, при понижении до которой содержащийся в воздухе водяной пар достигнет насыщения.
f - Относительная влажность воздуха - влажноcть воздуха, измеренная на высоте 2 м над землей.
Te - Эффективная температура - температура, которую ощущает одетый по сезону человек в тени. Характеристика душности погоды. При расчете учитывается влияние влажности воздуха и скорости ветра на теплоощущения человека.
Tes - Эффективная температура на солнце - температура, которую ощущает человек, с поправкой на солнечный нагрев. Характеристика знойности погоды. Зависит от высоты солнца над горизонтом, облачности и скорости ветра. Ночью, в пасмурную погоду, а также при ветре 12 м/с и более поправка равна нулю.
P - Атмосферное давление - приведенное к уровню моря атмосферное давление.
Po - Атмосферное давление - измеренное на уровне метеостанции атмосферное давление.
Tmin - Минимальная температура - минимум температуры воздуха на высоте 2 м над землей.
Tmax - Максимальная температура - максимум температуры воздуха на высоте 2 м над землей.
R - Количество осадков - Количество выпавших осадков за период времени, мм. При наведении курсора мыши на число - период времени, за который выпало указанное количество осадков.
R24 - Количество осадков - Количество выпавших осадков за 24 часа, мм.
S - Снежный покров - Высота снежного покрова, см. При наведении курсора мыши на число - состояние снежного покрова и степень покрытия местности в баллах.